CYYY

Mont Joli Airport

ICAO Code CYYY
IATA Code YYY
Name Mont Joli Airport
Location Mont-Joli, Quebec, CA
Elevation 172 Feet / 52.4 Meters
Latitude 48.60888889
Longitude -68.20805556
METAR CYYY 182300Z 07016G22KT 1/2SM R06/P6000FT/N -RA FG OVC002 14/14 A2975 RMK SF8 SLP079 DENSITY ALT 300FT
Extra information Display NOTAMS
Display Charts
Runway Length Width Surface Elevation
06 6000 ft 150 ft ASP 148 ft
15 3954 ft 150 ft ASP 131 ft
24 6000 ft 150 ft ASP 125 ft
33 3954 ft 150 ft ASP 172 ft

Mandatory Routes

Mont Joli Airport

Direction Destination Level Remark Type Route
ARR FR W H&L RNAV FLEUR YYY
DEP TO W H&L A120 & ABV RNAV MIVAX
DEP TO W L A100 & BLW YYY V98 YRI MIVAX